This is the latest recevied weather packets stored in our database for station/object N9EA. If no packets are shown the sender has not sent any weather packets the latest 10 day(s).
| Time | Temp. | Humidity | Pressure | Rain* | Wind** | Luminosity | Snow |
|---|---|---|---|---|---|---|---|
| 1777394193 | 13.89° C | 61% | 1016 hPa | 0 mm | - | 751 W/m² | - |
| 1777393889 | 13.89° C | 62% | 1015.8 hPa | 0 mm | - | 718 W/m² | - |
| 1777393587 | 13.89° C | 62% | 1015.7 hPa | 0 mm | - | 483 W/m² | - |
| 1777393283 | 13.89° C | 63% | 1015.6 hPa | 0 mm | - | 703 W/m² | - |
| 1777392981 | 12.78° C | 63% | 1015.5 hPa | 0 mm | - | 670 W/m² | - |
| 1777392675 | 12.78° C | 63% | 1015.7 hPa | 0 mm | - | 821 W/m² | - |
| 1777392372 | 13.33° C | 62% | 1015.5 hPa | 0 mm | - | 420 W/m² | - |
| 1777392068 | 12.78° C | 64% | 1015.5 hPa | 0 mm | - | 350 W/m² | - |
| 1777391762 | 12.22° C | 64% | 1015.4 hPa | 0 mm | - | 303 W/m² | - |
| 1777391459 | 12.78° C | 63% | 1015.1 hPa | 0 mm | - | 299 W/m² | - |
| 1777391155 | 12.78° C | 64% | 1015.2 hPa | 0 mm | - | 255 W/m² | - |
| 1777390851 | 12.22° C | 64% | 1015.4 hPa | 0 mm | - | 604 W/m² | - |
| 1777390549 | 11.67° C | 65% | 1015.4 hPa | 0 mm | - | 451 W/m² | - |
| 1777390245 | 11.11° C | 66% | 1015.2 hPa | 0 mm | - | 275 W/m² | - |
| 1777389941 | 11.11° C | 66% | 1015.3 hPa | 0 mm | - | 394 W/m² | - |
| 1777389638 | 11.11° C | 67% | 1015.2 hPa | 0 mm | - | 259 W/m² | - |
| 1777389334 | 10.56° C | 67% | 1015 hPa | 0 mm | - | 255 W/m² | - |
| 1777389032 | 10.56° C | 67% | 1015 hPa | 0 mm | - | 239 W/m² | - |
| 1777388729 | 10.56° C | 67% | 1014.6 hPa | 0 mm | - | 222 W/m² | - |
| 1777388426 | 10.56° C | 69% | 1014.6 hPa | 0 mm | - | 179 W/m² | - |
| 1777388126 | 10.56° C | 68% | 1014.3 hPa | 0 mm | - | 196 W/m² | - |
| 1777387822 | 10.56° C | 68% | 1014.2 hPa | 0 mm | - | 186 W/m² | - |
| 1777387519 | 10.56° C | 69% | 1014.2 hPa | 0 mm | - | 160 W/m² | - |
| 1777387214 | 10° C | 69% | 1014.1 hPa | 0 mm | - | 162 W/m² | - |
| 1777386909 | 10° C | 69% | 1014.3 hPa | 0 mm | - | 151 W/m² | - |
* Rain latest hour (hover to see other rain measurements)
** Current wind speed in m/s (hover to see current wind gust speed)